軌道要素
Epoch 2017 Sept. 4.0 TT = JDT 2458000.5
T 2017 Sept. 10.53331 TT MPCW
q 9.5565935 (2000.0) P Q
z -0.0003923 Peri. 345.84158 -0.85029237 -0.50400341
+/-0.0000005 Node 161.39567 +0.51719299 -0.85353164
e 1.0037492 Incl. 28.37225 +0.09754121 +0.13215257
From 963 observations 2014 Jan. 28-2019 May 10, mean residual 0".4.
|